Bigfork, MN

1:01 AM CDT on July 24, 2017 (GMT -0500)
Bigfork Municipal

Weather History for KFOZ - April, 2014

Change the Weather History Date:

Saturday, April 5, 2014

  Actual Average (KGPZ) Record (KGPZ)
Temperature  
Mean Temperature 32 °F -  
Max Temperature 46 °F 47 °F 70 °F (1921)
Min Temperature 19 °F 23 °F -1 °F (1920)
Degree Days  
Heating Degree Days 32    
Moisture  
Dew Point 24 °F    
Average Humidity 70    
Maximum Humidity 93    
Minimum Humidity 43    
Precipitation  
Precipitation 0.00 in - - ()
Sea Level Pressure  
Sea Level Pressure 29.91 in    
Wind  
Wind Speed 5 mph (SSW)    
Max Wind Speed 21 mph    
Max Gust Speed 26 mph    
Visibility 10 miles    
Events      
Averages and records for this station are not official NWS values.
T = Trace of Precipitation, MM = Missing Value Source: NWS Daily Summary

Daily Weather History Graph

Daily Weather History Graph

Search for Another Location

Airport or City:

Trip Planner

Search our weather history database for the weather conditions in past years. The results will help you decide how hot, cold, wet, or windy it might be!

Date:

Astronomy

Apr. 05, 2014 Rise Set
Actual Time 6:45 AM CDT 7:50 PM CDT
Civil Twilight 6:13 AM CDT 8:22 PM CDT
Nautical Twilight 5:35 AM CDT 9:00 PM CDT
Astronomical Twilight 4:55 AM CDT 9:40 PM CDT
Moon 10:38 AM CDT (4/5) 1:15 AM CDT (4/5)
Length of Visible Light 14h 08m
Length of Day
13h 05m
Waxing Crescent, 34% of the Moon is Illuminated
Apr 5
Waxing Crescent
Apr 7
First Quarter
Apr 15
Full
Apr 22
Last Quarter
Apr 29
New

Hourly Weather History & Observations

Time (CDT) Temp. Windchill Dew Point Humidity Pressure Visibility Wind Dir Wind Speed Gust Speed Precip Events Conditions
12:21 AM 28.4 °F - 21.2 °F 74% 29.97 in 10.0 mi Calm Calm - N/A   Clear
12:35 AM 28.4 °F - 21.2 °F 74% 29.96 in 10.0 mi Calm Calm - N/A   Clear
1:00 AM 26.6 °F - 21.2 °F 80% 29.96 in 10.0 mi Calm Calm - N/A   Clear
1:13 AM 24.8 °F - 19.4 °F 80% 29.96 in 10.0 mi Calm Calm - N/A   Clear
1:42 AM 24.8 °F - 21.2 °F 86% 29.97 in 10.0 mi Calm Calm - N/A   Clear
1:59 AM 23.0 °F - 19.4 °F 86% 29.97 in 10.0 mi Calm Calm - N/A   Clear
2:18 AM 23.0 °F - 19.4 °F 86% 29.97 in 10.0 mi Calm Calm - N/A   Clear
2:40 AM 23.0 °F - 19.4 °F 86% 29.97 in 10.0 mi Calm Calm - N/A   Clear
2:58 AM 21.2 °F - 19.4 °F 93% 29.98 in 10.0 mi Calm Calm - N/A   Clear
3:14 AM 21.2 °F - 19.4 °F 93% 29.98 in 10.0 mi Calm Calm - N/A   Clear
3:39 AM 21.2 °F - 19.4 °F 93% 29.98 in 10.0 mi Calm Calm - N/A   Clear
3:54 AM 19.4 °F - 17.6 °F 93% 29.98 in 10.0 mi Calm Calm - N/A   Clear
4:14 AM 21.2 °F - 19.4 °F 93% 29.98 in 10.0 mi Calm Calm - N/A   Clear
4:55 AM 21.2 °F - 19.4 °F 93% 29.98 in 7.0 mi Calm Calm - N/A   Clear
5:02 AM 21.2 °F - 17.6 °F 86% 29.98 in 7.0 mi Calm Calm - N/A   Clear
5:15 AM 21.2 °F - 19.4 °F 93% 29.98 in 7.0 mi Calm Calm - N/A   Clear
5:33 AM 21.2 °F - 19.4 °F 93% 29.98 in 5.0 mi Calm Calm - N/A   Clear
6:01 AM 19.4 °F - 17.6 °F 93% 29.97 in 7.0 mi Calm Calm - N/A   Clear
6:19 AM 19.4 °F - 17.6 °F 93% 29.97 in 10.0 mi Calm Calm - N/A   Clear
6:40 AM 19.4 °F - 17.6 °F 93% 29.97 in 10.0 mi Calm Calm - N/A   Clear
6:57 AM 19.4 °F - 17.6 °F 93% 29.98 in 7.0 mi Calm Calm - N/A   Clear
7:14 AM 19.4 °F 12.8 °F 17.6 °F 93% 29.98 in 10.0 mi South 4.6 mph - N/A   Scattered Clouds
7:41 AM 21.2 °F 14.9 °F 19.4 °F 93% 29.98 in 7.0 mi South 4.6 mph - N/A   Mostly Cloudy
7:55 AM 23.0 °F 15.8 °F 21.2 °F 93% 29.97 in 10.0 mi South 5.8 mph - N/A   Scattered Clouds
8:15 AM 24.8 °F 17.9 °F 23.0 °F 93% 29.97 in 10.0 mi South 5.8 mph - N/A   Clear
8:33 AM 26.6 °F 17.5 °F 24.8 °F 93% 29.97 in 10.0 mi SSW 9.2 mph - N/A   Scattered Clouds
8:53 AM 26.6 °F 18.2 °F 24.8 °F 93% 29.96 in 10.0 mi South 8.1 mph - N/A   Scattered Clouds
9:13 AM 28.4 °F 20.4 °F 24.8 °F 86% 29.96 in 10.0 mi South 8.1 mph - N/A   Scattered Clouds
9:34 AM 30.2 °F 21.9 °F 24.8 °F 80% 29.95 in 10.0 mi South 9.2 mph - N/A   Mostly Cloudy
9:53 AM 30.2 °F 23.4 °F 24.8 °F 80% 29.94 in 10.0 mi South 6.9 mph - N/A   Scattered Clouds
10:13 AM 33.8 °F 24.3 °F 24.8 °F 70% 29.94 in 10.0 mi SSW 13.8 mph 17.3 mph N/A   Clear
10:33 AM 35.6 °F 27.1 °F 26.6 °F 70% 29.93 in 10.0 mi South 12.7 mph 18.4 mph N/A   Clear
10:54 AM 37.4 °F 30.8 °F 26.6 °F 65% 29.93 in 10.0 mi South 9.2 mph - N/A   Scattered Clouds
11:13 AM 37.4 °F 28.9 °F 26.6 °F 65% 29.92 in 10.0 mi SSW 13.8 mph - N/A   Scattered Clouds
11:33 AM 39.2 °F 31.2 °F 26.6 °F 61% 29.92 in 10.0 mi SSW 13.8 mph 19.6 mph N/A   Scattered Clouds
11:54 AM 39.2 °F 30.2 °F 24.8 °F 56% 29.91 in 10.0 mi SSW 17.3 mph 23.0 mph N/A   Scattered Clouds
12:14 PM 39.2 °F 29.8 °F 24.8 °F 56% 29.91 in 10.0 mi SSW 18.4 mph - N/A   Clear
12:33 PM 41.0 °F 32.2 °F 24.8 °F 53% 29.90 in 10.0 mi SSW 18.4 mph 23.0 mph N/A   Scattered Clouds
12:54 PM 42.8 °F 35.4 °F 24.8 °F 49% 29.90 in 10.0 mi SSW 15.0 mph 24.2 mph N/A   Clear
1:15 PM 44.6 °F 37.4 °F 24.8 °F 46% 29.89 in 10.0 mi South 16.1 mph 20.7 mph N/A   Clear
1:34 PM 44.6 °F 36.9 °F 24.8 °F 46% 29.88 in 10.0 mi South 18.4 mph 24.2 mph N/A   Clear
1:53 PM 44.6 °F 36.9 °F 24.8 °F 46% 29.87 in 10.0 mi SSW 18.4 mph 26.5 mph N/A   Clear
2:13 PM 46.4 °F 38.7 °F 24.8 °F 43% 29.86 in 10.0 mi South 20.7 mph 24.2 mph N/A   Scattered Clouds
2:35 PM 46.4 °F 39.2 °F 24.8 °F 43% 29.85 in 10.0 mi SSW 18.4 mph 26.5 mph N/A   Clear
2:56 PM 46.4 °F 40.1 °F 24.8 °F 43% 29.85 in 10.0 mi South 15.0 mph 21.9 mph N/A   Scattered Clouds
3:13 PM 46.4 °F 39.8 °F 24.8 °F 43% 29.85 in 10.0 mi SSW 16.1 mph 23.0 mph N/A   Scattered Clouds
3:54 PM 46.4 °F 40.1 °F 24.8 °F 43% 29.84 in 10.0 mi SSW 15.0 mph 26.5 mph N/A   Scattered Clouds
4:13 PM 46.4 °F 40.4 °F 26.6 °F 46% 29.83 in 10.0 mi SSW 13.8 mph 20.7 mph N/A   Clear
4:33 PM 46.4 °F 39.5 °F 26.6 °F 46% 29.83 in 10.0 mi South 17.3 mph 23.0 mph N/A   Scattered Clouds
4:53 PM 46.4 °F 40.1 °F 26.6 °F 46% 29.83 in 10.0 mi SSW 15.0 mph 20.7 mph N/A   Scattered Clouds
5:14 PM 46.4 °F 40.4 °F 26.6 °F 46% 29.83 in 10.0 mi SSW 13.8 mph 21.9 mph N/A   Scattered Clouds
5:33 PM 46.4 °F 40.7 °F 26.6 °F 46% 29.83 in 10.0 mi SSW 12.7 mph - N/A   Clear
5:55 PM 46.4 °F 40.7 °F 28.4 °F 50% 29.84 in 10.0 mi South 12.7 mph 17.3 mph N/A   Clear
6:14 PM 46.4 °F 40.4 °F 28.4 °F 50% 29.84 in 10.0 mi SSW 13.8 mph 17.3 mph N/A   Clear
6:34 PM 46.4 °F 40.4 °F 28.4 °F 50% 29.84 in 10.0 mi South 13.8 mph 19.6 mph N/A   Clear
6:53 PM 44.6 °F 38.1 °F 28.4 °F 53% 29.84 in 10.0 mi South 13.8 mph 18.4 mph N/A   Clear
7:18 PM 44.6 °F 38.8 °F 28.4 °F 53% 29.85 in 10.0 mi SSW 11.5 mph 16.1 mph N/A   Clear
7:33 PM 44.6 °F 38.8 °F 28.4 °F 53% 29.85 in 10.0 mi South 11.5 mph 18.4 mph N/A   Clear
7:54 PM 42.8 °F 37.5 °F 30.2 °F 61% 29.86 in 10.0 mi SSW 9.2 mph - N/A   Scattered Clouds
8:13 PM 42.8 °F 36.6 °F 30.2 °F 61% 29.86 in 10.0 mi South 11.5 mph - N/A   Scattered Clouds
8:35 PM 42.8 °F 37.5 °F 30.2 °F 61% 29.87 in 10.0 mi South 9.2 mph - N/A   Scattered Clouds
8:53 PM 41.0 °F 35.2 °F 30.2 °F 65% 29.87 in 10.0 mi SSW 9.2 mph - N/A   Mostly Cloudy
9:18 PM 39.2 °F 34.2 °F 30.2 °F 70% 29.88 in 10.0 mi South 6.9 mph - N/A   Scattered Clouds
9:33 PM 41.0 °F 37.1 °F 30.2 °F 65% 29.88 in 10.0 mi South 5.8 mph - N/A   Scattered Clouds
9:57 PM 39.2 °F 33.0 °F 30.2 °F 70% 29.88 in 10.0 mi South 9.2 mph - N/A   Clear
10:15 PM 39.2 °F 33.6 °F 30.2 °F 70% 29.88 in 10.0 mi South 8.1 mph - N/A   Clear
10:35 PM 39.2 °F 35.0 °F 30.2 °F 70% 29.88 in 10.0 mi South 5.8 mph - N/A   Scattered Clouds
11:16 PM 37.4 °F 32.1 °F 30.2 °F 75% 29.88 in 10.0 mi South 6.9 mph - N/A   Scattered Clouds
11:37 PM 37.4 °F 32.1 °F 30.2 °F 75% 29.87 in 10.0 mi South 6.9 mph - N/A   Scattered Clouds
11:53 PM 37.4 °F 33.8 °F 30.2 °F 75% 29.88 in 10.0 mi SSW 4.6 mph - N/A   Scattered Clouds